Flag for Kazakhstan Weather past 2 weeks in Almaty, Kazakhstan

Now
57 °F

Sprinkles. Mostly cloudy.


Feels Like: 56 °F
Forecast: 49 / 78 °F
Wind: 6 mph from Southwest

Location: Almaty Airport

Current Time: Aug 28, 2015 at 7:16:04 AM

Latest Report: Aug 28, 2015 at 6:30 AM


Visibility: N/A

Pressure: 30.12 "Hg (27.42 "Hg at 790m altitude)

Humidity: 82%

Dew point: 52 °F

Location of AlmatyLocation

Historic Weather in Almaty — Graph

°F

Almaty temperature yesterday

Maximum temperature yesterday: 75 °F (at 3:00 PM)
Minimum temperature yesterday: 50 °F (at 6:30 AM)
Average temperature yesterday: 64 °F

Past Weeks' High & Low Weather Summary

 TemperatureHumidityPressure
High102 °F (Aug 20, 2:30 PM)94% (Aug 14, 7:30 AM)30.21 "Hg (Aug 14, 7:30 AM)
Low48 °F (Aug 15, 4:30 AM)5% (Aug 20, 2:30 PM)29.62 "Hg (Aug 21, 6:30 PM)
Average71 °F47%29.89 "Hg
* Reported Aug 13 6:00 AM — Aug 28 6:00 AM, Almaty, Weather by CustomWeather, © 2015

Note: Actual official high and low records may vary slightly from our data, if they occured in-between our weather recording intervals... More about our weather records

Advertising

Almaty weather history for previous 24 hours

 ConditionsComfort  
Time TempWeatherWind HumidityBarometerVisibility
6:00 AM
Fri, Aug 28
59 °FSprinkles. Mostly cloudy.8 mph77%30.09 "HgN/A
5:30 AM59 °FMostly cloudy.10 mph72%30.09 "HgN/A
5:00 AM61 °FMostly cloudy.13 mph63%30.09 "HgN/A
4:30 AM61 °FMostly cloudy.8 mph68%30.07 "HgN/A
4:00 AM61 °FMostly cloudy.8 mph77%30.07 "HgN/A
3:30 AM61 °FMostly cloudy.6 mph72%30.04 "HgN/A
3:00 AM61 °FMostly cloudy.6 mph72%30.07 "HgN/A
2:30 AM61 °FMostly cloudy.3 mph77%30.07 "HgN/A
2:00 AM61 °FMostly cloudy.3 mph77%30.07 "HgN/A
1:30 AM61 °FMostly cloudy.3 mph83%30.07 "HgN/A
1:00 AM61 °FMostly cloudy.3 mph77%30.07 "HgN/A
12:30 AM61 °FSprinkles. Mostly cloudy.3 mph72%30.07 "HgN/A
12:00 AM64 °FSprinkles. Mostly cloudy.3 mph56%30.07 "HgN/A
11:30 PM
Thu, Aug 27
64 °FMostly cloudy.3 mph52%30.09 "HgN/A
11:00 PM66 °FMostly cloudy.6 mph43%30.07 "HgN/A
10:30 PM66 °FMostly cloudy.3 mph46%30.07 "HgN/A
10:00 PM66 °FMostly cloudy.3 mph46%30.07 "HgN/A
9:30 PM66 °FMostly cloudy.3 mph49%30.07 "HgN/A
9:00 PM66 °FMostly cloudy.6 mph52%30.07 "HgN/A
8:30 PM68 °FMostly cloudy.3 mph46%30.07 "HgN/A
8:00 PM68 °FMostly cloudy.1 mph43%30.04 "HgN/A
7:30 PM68 °FPartly sunny.6 mph46%30.01 "HgN/A
7:00 PM70 °FBroken clouds.1 mph43%30.01 "HgN/A
6:30 PM72 °FBroken clouds.3 mph41%29.98 "HgN/A
6:00 PM73 °FBroken clouds.6 mph36%29.98 "HgN/A
5:30 PM73 °FBroken clouds.6 mph38%29.98 "HgN/A
5:00 PM75 °FBroken clouds.6 mph36%29.98 "HgN/A
4:30 PM75 °FBroken clouds.6 mph34%29.98 "HgN/A
3:30 PM75 °FBroken clouds.8 mph31%29.98 "HgN/A
3:00 PM75 °FBroken clouds.8 mph36%29.98 "HgN/A
2:30 PM72 °FBroken clouds.8 mph38%29.98 "HgN/A
2:00 PM72 °FPartly sunny.6 mph38%29.98 "HgN/A
1:30 PM73 °FPartly sunny.6 mph38%29.98 "HgN/A
1:00 PM72 °FPartly sunny.6 mph38%29.98 "HgN/A
12:30 PM72 °FBroken clouds.3 mph44%29.98 "HgN/A
12:00 PM70 °FBroken clouds.3 mph43%30.01 "HgN/A
11:30 AM70 °FBroken clouds.3 mph46%30.01 "HgN/A
11:00 AM68 °FBroken clouds.1 mph49%30.01 "HgN/A
10:00 AM66 °FPartly sunny.3 mph56%30.01 "HgN/A
9:30 AM63 °FPartly sunny.6 mph64%30.01 "HgN/A
8:30 AM59 °FPartly sunny.8 mph77%30.01 "HgN/A
8:00 AM57 °FPartly sunny.6 mph82%30.01 "HgN/A
7:30 AM54 °FScattered clouds.3 mph88%30.04 "HgN/A
7:00 AM52 °FScattered clouds.3 mph88%30.04 "HgN/A
Weather by CustomWeather, © 2015

See weather overviewHow to use our weather pages